Time,TemperatureF,DewpointF,PressureIn,WindDirection,WindDirectionDegrees,WindSpeedMPH,WindSpeedGustMPH,Humidity,HourlyPrecipIn,Conditions,Clouds,dailyrainin,SoftwareType,DateUTC
2013-05-03 00:17:00,39.4,25.7,30.36,NW,315,0.0,5.6,58,0.00,,,0.39,open2300-1.11,2013-05-03 05:17:00,
2013-05-03 01:17:00,37.8,24.7,30.34,NNW,337,1.6,5.1,59,0.00,,,0.39,open2300-1.11,2013-05-03 06:17:00,
2013-05-03 02:17:00,36.7,24.5,30.32,NNW,337,5.8,7.4,61,0.00,,,0.39,open2300-1.11,2013-05-03 07:17:00,
2013-05-03 03:17:00,35.4,23.7,30.30,NW,315,5.1,6.3,62,0.00,,,0.39,open2300-1.11,2013-05-03 08:17:00,
2013-05-03 04:17:00,34.3,23.4,30.29,North,0,4.2,5.8,64,0.00,,,0.37,open2300-1.11,2013-05-03 09:17:00,
2013-05-03 05:17:00,32.9,22.9,30.29,NW,315,2.5,5.1,66,0.00,,,0.37,open2300-1.11,2013-05-03 10:17:00,
2013-05-03 06:17:00,32.2,22.8,30.28,North,0,4.2,6.0,68,0.00,,,0.35,open2300-1.11,2013-05-03 11:17:00,
2013-05-03 07:17:00,32.2,23.5,30.28,North,0,5.6,7.2,69,0.00,,,0.33,open2300-1.11,2013-05-03 12:17:00,
2013-05-03 08:17:00,34.9,24.4,30.27,NW,315,5.1,6.5,67,0.00,,,0.29,open2300-1.11,2013-05-03 13:17:00,
2013-05-03 09:17:00,38.8,26.5,30.26,NNE,22,5.8,8.1,61,0.00,,,0.24,open2300-1.11,2013-05-03 14:17:00,
2013-05-03 10:17:00,41.7,27.5,30.22,NE,45,6.9,10.5,57,0.00,,,0.16,open2300-1.11,2013-05-03 15:17:00,
2013-05-03 11:17:00,44.8,28.2,30.20,NW,315,3.8,8.5,52,0.00,,,0.06,open2300-1.11,2013-05-03 16:17:00,
2013-05-03 12:17:00,47.1,28.9,30.17,NNW,337,2.9,11.2,49,0.00,,,0.00,open2300-1.11,2013-05-03 17:17:00,
2013-05-03 13:17:00,49.1,29.6,30.14,WNW,292,8.5,11.0,47,0.00,,,0.00,open2300-1.11,2013-05-03 18:17:00,
2013-05-03 14:17:00,51.8,29.3,30.12,NNE,22,10.3,13.4,42,0.00,,,0.00,open2300-1.11,2013-05-03 19:17:00,
2013-05-03 15:17:00,53.4,30.2,30.09,NNW,337,6.5,13.4,41,0.00,,,0.00,open2300-1.11,2013-05-03 20:17:00,
2013-05-03 16:17:00,52.2,27.9,30.07,West,270,3.1,8.7,39,0.00,,,0.00,open2300-1.11,2013-05-03 21:17:00,
2013-05-03 17:17:00,51.6,28.1,30.05,North,0,9.4,14.5,40,0.00,,,0.00,open2300-1.11,2013-05-03 22:17:00,
2013-05-03 18:17:00,50.9,28.0,30.05,NNE,22,5.6,9.8,41,0.00,,,0.00,open2300-1.11,2013-05-03 23:17:00,
2013-05-03 19:17:00,49.8,28.1,30.03,NNW,337,3.4,9.6,43,0.00,,,0.00,open2300-1.11,2013-05-04 00:17:00,
2013-05-03 20:17:00,48.7,29.8,30.04,NNE,22,0.0,10.1,48,0.00,,,0.00,open2300-1.11,2013-05-04 01:17:00,
2013-05-03 21:17:00,45.3,27.8,30.04,NNW,337,3.4,8.3,50,0.00,,,0.00,open2300-1.11,2013-05-04 02:17:00,
2013-05-03 22:17:00,44.8,27.8,30.03,NNW,337,2.9,7.2,51,0.00,,,0.00,open2300-1.11,2013-05-04 03:17:00,
2013-05-03 23:17:00,43.0,26.5,30.03,NNE,22,4.0,10.3,52,0.00,,,0.00,open2300-1.11,2013-05-04 04:17:00,